Location: Adelaide
(34.9285°S, 138.6007°E)
Time: 13:56:12
(UTC+10:30)

Envisat - Pass Details

Date: 19 November 2019
Orbit: 764 x 766 km, 98.1° (Epoch: 13 December)

Event Time Altitude Azimuth Distance (km) Brightness Sun altitude
Rises 20:41:25 0° 177° (S) 3,268 6.7 -7.9°
Reaches altitude 10° 20:43:52 10° 185° (S) 2,334 6.0 -8.3°
Maximum altitude 20:48:36 38° 251° (WSW) 1,166 4.7 -9.2°
Drops below altitude 10° 20:53:17 10° 318° (NW) 2,307 5.6 -10.0°
Sets 20:55:42 0° 326° (NW) 3,225 6.3 -10.4°
